P/2001 T3 ( NEAT )

Japanese version
Home page
Updated on August 14, 2018

---------------------------------------------------------------------

* Profile

Discovery Date October 14, 2001
Magnitude 18.4 mag
Discoverer Near-Earth-Asteroid Tracking Team (Jet Propulsion Laboratory)

* Orbital Elements

Epoch 2002 Feb. 15.0 TT = JDT 2452320.5
T 2002 Feb. 1.09383 TT                                  MPCW
q   2.5057379            (2000.0)            P               Q
n   0.05936926     Peri.  356.23282     +0.60193915     -0.74994104
a   6.5077115      Node    56.53924     +0.74097367     +0.39647532
e   0.6149587      Incl.   19.19781     +0.29770335     +0.52952409
P  16.60
From 143 observations 2001 Aug. 20-2018 Aug. 12, mean residual 0".5.

* Finding Charts

* Magnitudes Graph

        m1 = 3.5 + 5 log d + 30.0 log r

---------------------------------------------------------------------

The orbital elements are calculated by Dr. Brian G. Marsden and printed on M.P.E.C. 2018-P81.
The charts are made with StellaNavigator Ver.2.0 for Windows (AstroArts / ASCII).
The magnitudes graphs are made with Comet for Windows.

---------------------------------------------------------------------

Copyright(C) Seiichi Yoshida (comet@aerith.net). All rights reserved.